LNOSC SVVL-SVVG

Flight info

Callsign LNOSC
Flight time 0h 34m
Altitude 12000
Route VRA DCT BNS
Aircraft EC35/L-SDFGRY/C

Departure

Time 2026-04-14 02:24
Airport Dr. Antonio Nicolás Briceño Airport (SVVL)

Arrival

Time 2026-04-14 02:59
Airport Juan Pablo Pérez Alfonso Airport (SVVG)
Time Latitude Longitude Altitude Speed Heading
2026-04-14 02:17 9.33802 -70.58572 1919 ft 0 kts 17°
2026-04-14 02:23 9.33800 -70.58572 1924 ft 2 kts 25°
2026-04-14 02:23 9.33867 -70.58508 1980 ft 36 kts 21°
2026-04-14 02:23 9.34225 -70.58376 2069 ft 70 kts 12°
2026-04-14 02:24 9.34756 -70.58200 2138 ft 90 kts 14°
2026-04-14 02:24 9.35387 -70.58054 2244 ft 92 kts 354°
2026-04-14 02:24 9.35866 -70.58338 2534 ft 73 kts 301°
2026-04-14 02:24 9.35979 -70.58809 2776 ft 71 kts 265°
2026-04-14 02:25 9.35817 -70.59320 3052 ft 79 kts 239°
2026-04-14 02:25 9.35448 -70.59769 3350 ft 87 kts 227°
2026-04-14 02:25 9.34995 -70.60273 3484 ft 107 kts 230°
2026-04-14 02:25 9.34596 -70.60926 3640 ft 108 kts 237°
2026-04-14 02:26 9.34229 -70.61606 3782 ft 113 kts 240°
2026-04-14 02:26 9.33872 -70.62320 4015 ft 116 kts 242°
2026-04-14 02:26 9.33543 -70.63095 4281 ft 124 kts 248°
2026-04-14 02:26 9.33275 -70.63924 4633 ft 125 kts 251°
2026-04-14 02:27 9.33035 -70.64773 4980 ft 123 kts 252°
2026-04-14 02:27 9.32803 -70.65558 5413 ft 120 kts 251°
2026-04-14 02:27 9.32549 -70.66415 5578 ft 133 kts 251°
2026-04-14 02:27 9.32282 -70.67355 5652 ft 145 kts 252°
2026-04-14 02:28 9.32063 -70.68386 5703 ft 151 kts 258°
2026-04-14 02:28 9.31994 -70.69437 5790 ft 151 kts 268°
2026-04-14 02:28 9.32020 -70.70525 5760 ft 158 kts 264°
2026-04-14 02:28 9.31750 -70.71625 5705 ft 163 kts 244°
2026-04-14 02:29 9.31243 -70.72662 5585 ft 166 kts 239°
2026-04-14 02:29 9.30750 -70.73702 5653 ft 161 kts 241°
2026-04-14 02:29 9.30296 -70.74767 5471 ft 169 kts 243°
2026-04-14 02:29 9.29841 -70.75856 5401 ft 167 kts 243°
2026-04-14 02:30 9.29390 -70.76949 5396 ft 169 kts 244°
2026-04-14 02:30 9.28903 -70.78041 5169 ft 171 kts 239°
2026-04-14 02:30 9.28392 -70.79083 5208 ft 162 kts 243°
2026-04-14 02:30 9.27972 -70.80151 5138 ft 162 kts 247°
2026-04-14 02:31 9.27608 -70.81220 5160 ft 159 kts 249°
2026-04-14 02:31 9.27254 -70.82292 5076 ft 163 kts 246°
2026-04-14 02:31 9.26793 -70.83345 4967 ft 165 kts 242°
2026-04-14 02:31 9.26310 -70.84407 4813 ft 167 kts 242°
2026-04-14 02:32 9.25832 -70.85485 4659 ft 168 kts 243°
2026-04-14 02:32 9.25354 -70.86563 4525 ft 168 kts 242°
2026-04-14 02:32 9.24879 -70.87634 4416 ft 167 kts 243°
2026-04-14 02:32 9.24428 -70.88719 4278 ft 167 kts 246°
2026-04-14 02:33 9.24073 -70.89834 4149 ft 167 kts 250°
2026-04-14 02:33 9.23737 -70.90948 3997 ft 168 kts 249°
2026-04-14 02:33 9.23392 -70.92065 3938 ft 164 kts 251°
2026-04-14 02:34 9.22838 -70.94320 3749 ft 162 kts 246°
2026-04-14 02:34 9.22455 -70.95393 3644 ft 165 kts 246°
2026-04-14 02:34 9.21955 -70.96461 3446 ft 168 kts 237°
2026-04-14 02:34 9.21322 -70.97460 3266 ft 169 kts 230°
2026-04-14 02:35 9.20631 -70.98402 3179 ft 166 kts 231°
2026-04-14 02:35 9.20037 -70.99400 3131 ft 162 kts 243°
2026-04-14 02:35 9.19703 -71.00510 2926 ft 166 kts 248°
2026-04-14 02:35 9.19139 -71.01515 2850 ft 163 kts 233°
2026-04-14 02:36 9.18543 -71.02497 2720 ft 165 kts 237°
2026-04-14 02:36 9.17982 -71.03508 2572 ft 166 kts 237°
2026-04-14 02:36 9.17386 -71.04515 2407 ft 167 kts 234°
2026-04-14 02:36 9.16775 -71.05488 2442 ft 160 kts 236°
2026-04-14 02:37 9.16236 -71.06494 2311 ft 163 kts 240°
2026-04-14 02:37 9.15771 -71.07513 2294 ft 163 kts 243°
2026-04-14 02:37 9.15376 -71.08573 2280 ft 162 kts 248°
2026-04-14 02:37 9.15048 -71.09661 2289 ft 156 kts 251°
2026-04-14 02:38 9.14747 -71.10690 2395 ft 151 kts 250°
2026-04-14 02:38 9.14412 -71.11717 2363 ft 156 kts 248°
2026-04-14 02:38 9.13999 -71.12740 2387 ft 154 kts 242°
2026-04-14 02:38 9.13509 -71.13691 2477 ft 151 kts 238°
2026-04-14 02:39 9.12985 -71.14604 2520 ft 152 kts 236°
2026-04-14 02:39 9.12410 -71.15529 2455 ft 156 kts 235°
2026-04-14 02:39 9.11839 -71.16454 2494 ft 154 kts 236°
2026-04-14 02:39 9.11299 -71.17356 2681 ft 145 kts 236°
2026-04-14 02:40 9.10956 -71.17931 2815 ft 143 kts 236°
2026-04-14 02:40 9.10271 -71.19070 3024 ft 145 kts 235°
2026-04-14 02:40 9.09738 -71.19936 3182 ft 144 kts 236°
2026-04-14 02:40 9.09250 -71.20834 3302 ft 146 kts 240°
2026-04-14 02:41 9.08784 -71.21753 3425 ft 148 kts 239°
2026-04-14 02:41 9.08455 -71.22375 3384 ft 154 kts 238°
2026-04-14 02:41 9.07940 -71.23315 3464 ft 152 kts 237°
2026-04-14 02:41 9.07424 -71.24250 3512 ft 153 kts 238°
2026-04-14 02:42 9.06913 -71.25158 3719 ft 145 kts 237°
2026-04-14 02:42 9.06429 -71.26068 3836 ft 148 kts 240°
2026-04-14 02:42 9.05949 -71.27000 3898 ft 151 kts 239°
2026-04-14 02:42 9.05439 -71.27953 3914 ft 156 kts 238°
2026-04-14 02:43 9.04927 -71.28949 3828 ft 162 kts 239°
2026-04-14 02:43 9.04375 -71.29911 3895 ft 156 kts 234°
2026-04-14 02:43 9.03772 -71.30807 4028 ft 151 kts 232°
2026-04-14 02:43 9.03179 -71.31685 4132 ft 150 kts 233°
2026-04-14 02:44 9.02592 -71.32558 4242 ft 150 kts 232°
2026-04-14 02:44 9.01948 -71.33395 4303 ft 152 kts 226°
2026-04-14 02:44 9.01251 -71.34214 4324 ft 156 kts 228°
2026-04-14 02:44 9.00613 -71.35096 4389 ft 155 kts 232°
2026-04-14 02:45 9.00019 -71.36008 4403 ft 157 kts 235°
2026-04-14 02:45 8.99497 -71.36964 4428 ft 157 kts 240°
2026-04-14 02:45 8.98983 -71.37947 4418 ft 159 kts 238°
2026-04-14 02:45 8.98475 -71.38945 4414 ft 159 kts 241°
2026-04-14 02:46 8.97964 -71.39938 4424 ft 158 kts 235°
2026-04-14 02:46 8.97308 -71.40843 4332 ft 160 kts 227°
2026-04-14 02:46 8.96577 -71.41705 4273 ft 162 kts 225°
2026-04-14 02:46 8.95810 -71.42540 4236 ft 163 kts 223°
2026-04-14 02:47 8.95001 -71.43338 4207 ft 162 kts 219°
2026-04-14 02:47 8.94142 -71.44081 4163 ft 162 kts 215°
2026-04-14 02:47 8.93221 -71.44765 4018 ft 166 kts 212°
2026-04-14 02:47 8.92301 -71.45435 3959 ft 166 kts 210°
2026-04-14 02:48 8.91350 -71.46082 3893 ft 162 kts 213°
2026-04-14 02:48 8.90450 -71.46760 3894 ft 161 kts 213°
2026-04-14 02:48 8.89537 -71.47415 3927 ft 157 kts 211°
2026-04-14 02:48 8.88607 -71.48026 3891 ft 159 kts 209°
2026-04-14 02:49 8.87660 -71.48630 3859 ft 159 kts 210°
2026-04-14 02:49 8.86752 -71.49312 3716 ft 166 kts 216°
2026-04-14 02:49 8.85904 -71.50060 3617 ft 165 kts 219°
2026-04-14 02:49 8.85077 -71.50847 3720 ft 159 kts 224°
2026-04-14 02:50 8.84329 -71.51641 3640 ft 156 kts 227°
2026-04-14 02:50 8.83618 -71.52462 3367 ft 164 kts 227°
2026-04-14 02:50 8.82881 -71.53344 3153 ft 161 kts 231°
2026-04-14 02:50 8.82193 -71.54226 2958 ft 159 kts 229°
2026-04-14 02:51 8.81508 -71.55061 3018 ft 151 kts 229°
2026-04-14 02:51 8.80831 -71.55859 2978 ft 151 kts 228°
2026-04-14 02:51 8.80176 -71.56668 3051 ft 146 kts 232°
2026-04-14 02:51 8.79605 -71.57473 3142 ft 143 kts 235°
2026-04-14 02:52 8.79066 -71.58331 3150 ft 146 kts 238°
2026-04-14 02:52 8.78597 -71.59230 3241 ft 143 kts 244°
2026-04-14 02:52 8.78168 -71.60156 3252 ft 146 kts 243°
2026-04-14 02:52 8.77670 -71.61028 3317 ft 147 kts 232°
2026-04-14 02:53 8.76963 -71.61782 3265 ft 153 kts 222°
2026-04-14 02:53 8.76196 -71.62503 3312 ft 151 kts 224°
2026-04-14 02:53 8.75417 -71.63228 3320 ft 150 kts 222°
2026-04-14 02:53 8.74641 -71.63935 3397 ft 148 kts 223°
2026-04-14 02:54 8.73858 -71.64627 3467 ft 147 kts 222°
2026-04-14 02:54 8.73095 -71.65326 3484 ft 149 kts 223°
2026-04-14 02:54 8.72345 -71.66007 3697 ft 142 kts 222°
2026-04-14 02:54 8.71557 -71.66627 3803 ft 145 kts 215°
2026-04-14 02:55 8.70666 -71.67094 3947 ft 145 kts 204°
2026-04-14 02:55 8.69675 -71.67286 4114 ft 150 kts 181°
2026-04-14 02:55 8.68628 -71.67072 4143 ft 159 kts 163°
2026-04-14 02:55 8.67560 -71.66717 4032 ft 167 kts 160°
2026-04-14 02:56 8.66697 -71.65996 4085 ft 159 kts 118°
2026-04-14 02:56 8.66646 -71.64952 4213 ft 148 kts 67°
2026-04-14 02:56 8.67334 -71.64243 4130 ft 145 kts 13°
2026-04-14 02:56 8.68261 -71.64385 3932 ft 137 kts 315°
2026-04-14 02:57 8.68645 -71.65245 3568 ft 140 kts 270°
2026-04-14 02:57 8.68398 -71.66174 3332 ft 138 kts 234°
2026-04-14 02:57 8.67565 -71.66707 2832 ft 152 kts 193°
2026-04-14 02:57 8.66494 -71.66651 2407 ft 158 kts 165°
2026-04-14 02:58 8.65436 -71.66269 2008 ft 156 kts 161°
2026-04-14 02:58 8.64440 -71.65971 1643 ft 149 kts 174°
2026-04-14 02:58 8.63516 -71.66200 1078 ft 128 kts 222°
2026-04-14 02:58 8.63151 -71.66875 979 ft 95 kts 256°
2026-04-14 02:59 8.63085 -71.67520 829 ft 90 kts 264°
2026-04-14 02:59 8.62976 -71.68077 857 ft 63 kts 243°
2026-04-14 02:59 8.62898 -71.68340 1004 ft 19 kts 232°
2026-04-14 02:59 8.62904 -71.68399 735 ft 10 kts 197°
2026-04-14 03:00 8.62670 -71.68370 770 ft 55 kts 137°
2026-04-14 03:00 8.62555 -71.67962 765 ft 74 kts 78°
2026-04-14 03:00 8.62613 -71.67382 670 ft 89 kts 91°
2026-04-14 03:00 8.62686 -71.66789 692 ft 79 kts 81°
2026-04-14 03:01 8.62803 -71.66329 908 ft 57 kts 73°
2026-04-14 03:01 8.62901 -71.66015 1075 ft 34 kts 91°
2026-04-14 03:01 8.63057 -71.65816 1082 ft 47 kts 352°
2026-04-14 03:01 8.63210 -71.66050 1037 ft 61 kts 261°
2026-04-14 03:02 8.63117 -71.66595 810 ft 90 kts 268°
2026-04-14 03:02 8.63178 -71.67210 841 ft 81 kts 278°
2026-04-14 03:02 8.63350 -71.67744 872 ft 84 kts 288°
2026-04-14 03:02 8.63527 -71.68304 903 ft 80 kts 281°
2026-04-14 03:03 8.63579 -71.68854 960 ft 73 kts 259°
2026-04-14 03:03 8.63328 -71.69237 1120 ft 70 kts 208°
2026-04-14 03:03 8.62754 -71.69177 1056 ft 92 kts 162°
2026-04-14 03:03 8.62313 -71.68729 936 ft 84 kts 107°
2026-04-14 03:04 8.62291 -71.68187 672 ft 77 kts 77°
2026-04-14 03:04 8.62368 -71.67682 493 ft 64 kts 85°
2026-04-14 03:04 8.62427 -71.67274 355 ft 53 kts 80°
2026-04-14 03:04 8.62475 -71.66903 313 ft 52 kts 79°
2026-04-14 03:05 8.62523 -71.66582 280 ft 38 kts 80°
2026-04-14 03:05 8.62549 -71.66396 268 ft 17 kts 111°
2026-04-14 03:05 8.62504 -71.66340 273 ft 8 kts 179°
2026-04-14 03:05 8.62437 -71.66331 267 ft 10 kts 166°
2026-04-14 03:06 8.62398 -71.66287 262 ft 8 kts 105°
2026-04-14 03:06 8.62389 -71.66240 264 ft 5 kts 142°
2026-04-14 03:06 8.62357 -71.66227 265 ft 5 kts 174°
2026-04-14 03:06 8.62329 -71.66227 264 ft 1 kts 230°
2026-04-14 03:07 8.62326 -71.66241 262 ft 2 kts 266°
2026-04-14 03:07 8.62324 -71.66252 256 ft 1 kts 268°
2026-04-14 03:07 8.62324 -71.66254 254 ft 0 kts 267°